Regional Weather Roundup
Issued by NWS

Home | Current Version | Previous Version | Text Only | Print | Product List | Glossary On
Versions: 1 2 3 4 5 6 7 8 9 10 11 12 13 14 15 16 17 18 19 20 21 22 23 24 25 26 27 28 29 30 31 32 33 34 35 36 37 38 39 40 41 42 43 44 45 46 47 48 49 50
000
ASUS44 KLUB 061001
RWRTX
WEST TEXAS WEATHER ROUNDUP
NATIONAL WEATHER SERVICE LUBBOCK TX
400 AM CST SAT FEB 06 2016

NOTE: "FAIR" INDICATES FEW OR NO CLOUDS BELOW 12,000 FEET WITH NO
SIGNIFICANT WEATHER AND/OR OBSTRUCTIONS TO VISIBILITY.

TXZ004-006>008-010-012-014-016-OKZ002-061100-
TEXAS PANHANDLE/OKLAHOMA PANHANDLE

CITY           SKY/WX    TMP DP  RH WIND       PRES   REMARKS
AMARILLO       CLEAR     23  16  74 W10       30.36S WCI  12
BORGER         CLEAR     27  17  66 W7        30.37R WCI  19
CANADIAN       CLEAR     28  21  75 NW6       30.35S WCI  22
DALHART        CLEAR     19  11  70 NW9       30.35F WCI   8
GUYMON         CLEAR     23  15  71 W9        30.35R WCI  13
$$

TXZ026-029-035-045-048-061100-
SOUTHERN PANHANDLE/SOUTH PLAINS/ROLLING PLAINS

CITY           SKY/WX    TMP DP  RH WIND       PRES   REMARKS
CHILDRESS      CLEAR     32  20  61 N12       30.34R WCI  23
LUBBOCK        CLEAR     23  16  74 NW12      30.36S WCI  12
$$

TXZ052-054-060>062-072-078-127-140-154-169-061100-
PERMIAN BASIN/CONCHO VALLEY/BIG COUNTRY/EDWARDS PLATEAU

CITY           SKY/WX    TMP DP  RH WIND       PRES   REMARKS
ABILENE        CLEAR     38  22  52 NW18      30.31R WCI  28
BROWNWOOD      MOCLDY    41  23  48 NW20G28   30.29S
JUNCTION       PTCLDY    33  20  58 W5        30.38R WCI  29
MIDLAND        CLEAR     27  18  69 W6        30.41S WCI  20
ODESSA         CLEAR     28  18  66 NW10      30.41S WCI  19
SAN ANGELO     CLEAR     35  22  58 W10       30.38S WCI  27
WINK           CLEAR     25  15  66 W8        30.43R WCI  16
$$

TXZ055-058-074-075-080-082-061100-
FAR WEST/SOUTHWEST MOUNTAINS/TRANS PECOS

CITY           SKY/WX    TMP DP  RH WIND       PRES   REMARKS
DRYDEN           N/A     36  16  44 W8        30.42S WCI  30
EL PASO        PTCLDY    32   5  32 S8        30.44F WCI  25
FORT STOCKTON  CLEAR     31  18  58 SW10      30.43F WCI  22
GUADALUPE PASS CLOUDY    30  11  45 SW8       30.41F WCI  22
MARFA          CLOUDY    19   7  59 NW8       30.44R WCI   9
PRESIDIO       FAIR      32   9  37 N3        30.45R
$$

TXZ014-016-019-021>030-083-061100
TEXAS TECH WEST TEXAS MESONET/TEXAS PANHANDLE/NORTHERN SOUTH PLAINS

CITY           SKY/WX    TMP DP  RH WIND       PRES   REMARKS
ABERNATHY 5ENE   N/A     23  18  81 NW13      30.37S WCI  11
AMARILLO 9NNE    N/A     21  16  81 CALM      30.38S
AMARILLO 7SSE    N/A     21  16  80 NW9       30.37R WCI  11
AMHERST 1NE      N/A     20  15  79 W8        30.38S WCI  10
BOOTLEG 11WNW    N/A     17  11  77 NW10      30.37F WCI   5
CANADIAN 6E      N/A     23  18  80 W2        30.33R
CAPROCK CYN SP   N/A     32  20  60 W9        30.36R WCI  24
CHILDRESS 2NNE   N/A     30  21  69 NW13      30.33S WCI  20
CLARENDON 2WSW   N/A     23  17  79 N8        30.35R WCI  13
CLAUDE 12SW      N/A     23  17  75 NW12      30.35R WCI  12
FLOYDADA 2NNE    N/A     22  17  82 W12       30.35S WCI  10
FRIONA 2NE       N/A     15  12  85 W7        30.38S WCI   5
GOODLETT 3W      N/A     31  22  68 NW13      30.34R WCI  22
HART 3N          N/A     18  13  82 W7        30.37R WCI   9
HEREFORD 2NW     N/A     20  13  76 W8        30.36S WCI  10
MCLEAN 1E        N/A     26  18  71 NW10      30.33R WCI  16
MEMPHIS 1NE      N/A     34  20  57 NW14      30.36R WCI  24
MULESHOE 2SSW    N/A     15  12  88 SW7       30.39S WCI   6
OLTON 6S         N/A     19  14  81 W8        30.37S WCI   9
PALO DURO SP     N/A     22  15  76 NW13      30.37R WCI  10
PAMPA 2E         N/A     23  17  77 W8        30.34S WCI  14
PLAINVIEW 1S     N/A     23  17  78 W9        30.36R WCI  13
SILVERTON 7ESE   N/A     21  16  81 W9        30.35S WCI  11
TULIA 2ENE       N/A     20  17  89 W9        30.36R WCI   9
TURKEY 2WSW      N/A     29  20  71 NW9       30.35R WCI  20
UMBARGER 3NNE    N/A     18  13  81 W9        30.36S WCI   6
$$

TXZ033>036-039>041-045>048-061100
TEXAS TECH WEST TEXAS MESONET/SOUTH PLAINS

CITY           SKY/WX    TMP DP  RH WIND       PRES   REMARKS
AIKEN 3WSW       N/A     22  17  79 W10       30.37R WCI  11
ANDREWS 2NE      N/A     29  17  62 W7        30.41S WCI  21
ANTON 6SSW       N/A     21  16  79 NW8       30.38S WCI  12
BROWNFIELD 2S    N/A     23  16  72 NW10      30.39S WCI  13
DENVR CTY 7WNW   N/A     20  14  76 W8        30.39F WCI  11
GAIL 2ESE        N/A     35  19  52 NW10      30.37S WCI  27
LAMESA 2SE       N/A     27  18  69 W8        30.40S WCI  18
LEVELLAND 4S     N/A     20  14  78 W7        30.38S WCI  11
LUBBOCK 3WNW     N/A     25  16  68 NW7       30.38S WCI  17
MORTON 1ENE      N/A     18  13  81 W7        30.38S WCI   8
ODONNELL 1N      N/A     24  17  73 NW10      30.38S WCI  14
PLAINS 3N        N/A     15  11  82 W6        30.39S WCI   7
RALLS 1SE        N/A     26  17  67 NW10      30.36S WCI  17
REESE CENTER     N/A     23  16  75 NW12      30.38R WCI  11
SEAGRAVES 1SW    N/A     23  16  75 W10       30.40S WCI  12
SEMINOLE 2NNE    N/A     24  16  70 W7        30.40S WCI  16
SLATON 2NE       N/A     27  18  70 NW10      30.37R WCI  17
SNYDER 3E        N/A     33  20  59 NW15      30.35S WCI  23
SUNDOWN 8SW      N/A     17  11  78 W6        30.38S WCI   9
TAHOKA 3NNE      N/A     25  16  68 W10       30.37S WCI  15
WOLFFORTH 6SSW   N/A     25  15  66 NW9       30.38S WCI  15
$$

TXZ031-032-036>038-042>044-061100-
TEXAS TECH WEST TEXAS MESONET/ROLLING PLAINS

CITY           SKY/WX    TMP DP  RH WIND       PRES   REMARKS
ASPERMONT 3NE    N/A     36  20  52 NW12      30.34S WCI  28
FLUVANNA 3WNW    N/A     31  18  58 NW8       30.36S WCI  24
GRAHAM 5SSW      N/A     29  19  65 NW13      30.37S WCI  19
GUTHRIE 10WSW    N/A     35  20  54 NW9       30.33R WCI  28
HASKELL 1NW      N/A     37  22  54 NW18      30.31R WCI  27
JAYTON 1SSE      N/A     29  20  67 W8        30.35S WCI  21
KNOX CITY 3NW    N/A     38  21  49 NW15      30.32F WCI  29
LK A HENRY 1NW   N/A     31  19  60 NW9       30.37S WCI  23
NORTHFIELD 1S    N/A     30  22  70 W8        30.35R WCI  22
ODELL 4ENE       N/A     33  24  71 NW13      30.32S WCI  24
PADUCAH 10SW     N/A     32  21  65 NW13      30.33S WCI  22
POST 1NE         N/A     32  18  56 W12       30.36F WCI  23
RRING SPRGS 3N   N/A     29  20  70 W13       30.34S WCI  18
SEYMOUR 3NW      N/A     39  27  62 NW18      30.29R WCI  29
SPUR 1W          N/A     31  20  62 NW8       30.34S WCI  24
WEINERT 2NNE     N/A     37  23  55 NW18      30.31S WCI  27
WHITE RVR 6NE    N/A     30  18  59 NW18      30.35R WCI  18
$$

TXZ052-054-060>062-072-078-127-140-154-169-061100-
TEXAS TECH WEST TEXAS MESONET/PERMIAN BASIN/
CONCHO VALLEY/BIG COUNTRY/EDWARDS PLATEAU

CITY           SKY/WX    TMP DP  RH WIND       PRES   REMARKS
COYANOSA 2N      N/A     28  15  59 SW5       30.45S WCI  23
JUNCTION 1SSW    N/A     36  21  53 W2        30.39R
MERTZON 3NNE     N/A     33  20  58 W7        30.40R WCI  27
SAN ANGELO 7NW   N/A     32  18  55 W6        30.38S WCI  26
STRLNG CT 4WSW   N/A     30  19  62 W6        30.40S WCI  24
ST LAWRNCE 5SW   N/A     27  16  63 NW9       30.40S WCI  17
SWEETWATR 11SW   N/A     28  20  71 SW3       30.37R
WALL 1E          N/A     28  16  59 SW8       30.38S WCI  20
$$

TXZ055-058-074-075-080-082-061100-
TEXAS TECH WEST TEXAS MESONET/FAR WEST/SOUTHWEST MOUNTAINS/TRANS PECOS

CITY           SKY/WX    TMP DP  RH WIND       PRES   REMARKS
PRSMN GAP BBNP   N/A     41   9  27 NE2       30.44R
GUADLPE MTN NP   N/A     26   6  42 W3        30.41F
$$



USA.gov is the U.S. government's official web portal to all federal, state and local government web resources and services.